Home > Weather > Santa Clara > Past weeks

Flag for USA Weather for the Past 2 Weeks in Santa Clara, California, USA

Now
66 °F

Broken clouds.


Feels Like: 66 °F
Forecast: 55 / 62 °F
Wind: 9 mph from South

Location: San Jose International Airport

Current Time: May 5, 2016 at 5:23:27 PM

Latest Report: May 5, 2016 at 4:53 PM


Visibility: 10 mi

Pressure: 29.84 "Hg

Humidity: 52%

Dew Point: 48 °F

Location of Santa ClaraLocation

Historic Weather in Santa Clara — Graph

°F

Santa Clara Temperature Yesterday

Maximum temperature yesterday: 71 °F (at 3:53 PM)
Minimum temperature yesterday: 57 °F (at 2:53 AM)
Average temperature yesterday: 62 °F

High & Low Weather Summary for the Past Weeks

 TemperatureHumidityPressure
High82 °F (May 1, 1:53 PM)90% (Apr 22, 7:53 AM)30.21 "Hg (Apr 22, 7:53 AM)
Low45 °F (Apr 26, 4:53 AM)25% (May 1, 12:53 PM)29.79 "Hg (Apr 30, 6:53 PM)
Average61 °F63%29.96 "Hg
* Reported Apr 20 3:53 PM — May 5 3:53 PM, Santa Clara, Weather by CustomWeather, © 2016

Note: Actual official high and low records may vary slightly from our data, if they occured in-between our weather recording intervals... More about our weather records

Advertising

Santa Clara Weather History for the Previous 24 Hours

Scroll right to see more
 ConditionsComfort  
Time TempWeatherWind HumidityBarometerVisibility
3:53 PM
Thu, May 5
69 °FPartly sunny.12 mph45%29.84 "Hg10 mi
2:53 PM70 °FPartly sunny.10 mph47%29.85 "Hg10 mi
1:53 PM68 °FPartly sunny.12 mph49%29.85 "Hg10 mi
12:53 PM67 °FMostly cloudy.14 mph53%29.86 "Hg10 mi
11:53 AM65 °FMostly cloudy.14 mph59%29.86 "Hg10 mi
10:53 AM63 °FMostly cloudy.9 mph63%29.86 "Hg10 mi
9:53 AM63 °FMostly cloudy.9 mph63%29.86 "Hg10 mi
8:53 AM60 °FMostly cloudy.6 mph69%29.86 "Hg10 mi
7:53 AM59 °FMostly cloudy.8 mph72%29.85 "Hg10 mi
6:53 AM57 °FMostly cloudy.8 mph78%29.86 "Hg10 mi
5:53 AM56 °FPartly cloudy.9 mph77%29.86 "Hg10 mi
4:53 AM57 °FClear.9 mph74%29.86 "Hg10 mi
3:53 AM58 °FPassing clouds.9 mph72%29.85 "Hg10 mi
2:53 AM59 °FOvercast.5 mph69%29.86 "Hg10 mi
1:53 AM60 °FOvercast.8 mph65%29.88 "Hg10 mi
1:03 AM60 °FOvercast.6 mph65%29.89 "Hg10 mi
12:53 AM60 °FOvercast.6 mph65%29.89 "Hg10 mi
11:53 PM
Wed, May 4
59 °FOvercast.9 mph69%29.89 "Hg10 mi
10:53 PM60 °FOvercast.13 mph65%29.90 "Hg10 mi
9:53 PM60 °FOvercast.6 mph67%29.88 "Hg10 mi
8:53 PM61 °FCloudy.5 mph67%29.86 "Hg10 mi
7:53 PM63 °FMore clouds than sun.9 mph68%29.84 "Hg10 mi
6:53 PM65 °FMore clouds than sun.12 mph63%29.83 "Hg10 mi
5:53 PM68 °FMore clouds than sun.13 mph59%29.83 "Hg10 mi
Weather by CustomWeather, © 2016

See weather overviewHow to use our weather pages